Location: Days
(41.3591°N, 106.7339°W)
Time: 03:19:36
(UTC+00:00)

ISS - Visible Passes

Search period start: 20 January 2022 00:00
Search period end: 30 January 2022 00:00
Orbit: 413 x 423 km, 51.6° (Epoch: 20 January)

Date Brightness Start Highest point End Pass type
(mag) Time Alt. Az. Time Alt. Az. Time Alt. Az.
20 Jan -3.4 01:45:34 10° WSW 01:48:51 55° NNW 01:49:25 47° N visible
21 Jan -3.8 00:57:33 10° SW 01:00:52 88° SE 01:03:34 15° NE visible
21 Jan -1.0 02:35:25 10° WNW 02:36:31 16° NW 02:36:31 16° NW visible
22 Jan -2.2 01:46:58 10° W 01:49:51 26° NNW 01:50:37 24° N visible
23 Jan -2.7 00:58:38 10° W 01:01:45 37° NNW 01:04:40 11° NE visible
23 Jan -0.7 02:37:11 10° NW 02:37:36 12° NW 02:37:36 12° NW visible
24 Jan -1.6 01:48:42 10° WNW 01:51:01 17° NNW 01:51:36 17° N visible
25 Jan -1.8 01:00:11 10° WNW 01:02:48 21° NNW 01:05:26 10° NNE visible
26 Jan -1.5 01:50:20 10° NW 01:52:14 14° N 01:52:27 14° N visible
27 Jan -1.5 01:01:54 10° NW 01:03:58 15° N 01:06:02 10° NNE visible
28 Jan -1.5 01:51:26 10° NNW 01:53:17 15° N 01:53:17 15° N visible
29 Jan -1.5 01:03:17 10° NNW 01:05:10 14° N 01:07:02 10° NE visible
29 Jan -0.7 02:39:57 10° NW 02:40:12 11° NW 02:40:12 11° NW visible
